Location: Wells
(51.2093°N, 2.6446°W)
Time: 16:40:01
(UTC+00:00)

AO-85 - Visible Passes

Search period start: 14 March 2026 00:00
Search period end: 24 March 2026 00:00
Orbit: 507 x 687 km, 64.8° (Epoch: 13 March)

Date Brightness Start Highest point End Pass type
(mag) Time Alt. Az. Time Alt. Az. Time Alt. Az.
14 Mar ? 03:55:24 12° SSE 03:57:26 17° ESE 04:00:04 10° ENE visible
14 Mar ? 05:32:25 10° SW 05:36:24 69° NW 05:40:17 10° NE visible
15 Mar ? 04:05:41 21° SSE 04:07:19 28° ESE 04:10:42 10° ENE visible
15 Mar ? 05:42:45 10° WSW 05:46:34 43° NW 05:50:17 10° NNE visible
16 Mar ? 04:15:51 32° S 04:17:16 47° SE 04:21:01 10° NE visible
17 Mar ? 02:49:16 11° E 02:49:16 11° E 02:49:49 10° E visible
17 Mar ? 04:25:56 40° SSW 04:27:16 81° SE 04:31:10 10° NE visible
18 Mar ? 02:59:15 18° E 02:59:15 18° E 03:01:09 10° ENE visible
18 Mar ? 04:35:55 36° WSW 04:37:21 62° NW 04:41:12 10° NE visible
19 Mar ? 03:09:10 27° E 03:09:10 27° E 03:11:40 10° ENE visible
19 Mar ? 04:45:50 26° W 04:47:30 40° NW 04:51:10 10° NNE visible
20 Mar ? 03:19:02 42° E 03:19:02 42° E 03:21:55 10° NE visible
20 Mar ? 04:55:41 18° W 04:57:42 28° NW 05:01:05 10° NNE visible
21 Mar ? 03:28:50 58° NE 03:28:50 58° NE 03:32:00 10° NE visible
21 Mar ? 05:05:29 12° WNW 05:07:59 21° NNW 05:10:57 10° NNE visible
22 Mar ? 02:01:55 11° ENE 02:01:55 11° ENE 02:02:05 10° ENE visible
22 Mar ? 03:38:34 53° NNW 03:38:34 53° NNW 03:41:59 10° NE visible
22 Mar ? 05:15:48 10° WNW 05:18:19 16° NNW 05:20:48 10° NNE visible
23 Mar ? 02:11:38 15° ENE 02:11:38 15° ENE 02:12:30 10° NE visible
23 Mar ? 03:48:17 36° NW 03:48:17 36° NW 03:51:54 10° NNE visible
23 Mar ? 05:26:42 10° NW 05:28:42 13° NNW 05:30:41 10° NNE visible
